STARLINK-36821

Last updated on Tue Mar 24 2026 00:02:05 GMT+0000 (Coordinated Universal Time)

1 67880U 26035B 26082.54468531 .00103357 00000+0 68684-3 0 9992 2 67880 97.2858 15.6135 0002693 165.0450 195.0896 15.75140827 6028
UTC large
Height (km)
Speed (km/s)
/
Latitude / Longitude
Inclination (degrees)
Orbital Period (minutes)
Azimuth
Elevation
Range (km)
Doppler Factor

Next 0 passes for location: London (51.5072 / 0.1276)

Sorry there are no passes over London.